sat.trackr.live / text

‹ back to catalog

STARLINK-31081

NORAD 58632 · 2023-203Q

PAYLOAD ACTIVE UNKNOWN

§ Identity

Operator
Country
US
Launch date
2023-12-23
Launch site
AFETR
Launch vehicle
Mass (kg)
RCS (m²)

Purposes: comms

External: N2YO · Heavens-Above · Gunter

§ Orbital elements

Epoch: 2026-09-19T17:00:34.983936Z

Period
94.27 min
Inclination
43.0020°
Eccentricity
0.0001364
Mean motion
15.27575746 rev/d
Perigee alt
482.1 km
Apogee alt
484.0 km
Semi-major
6,861.2 km
B*
9.7222e-6
RAAN
54.8474°
Arg perigee
268.3563°
Mean anomaly
91.7132°
Rev number
15,442

§ Raw data

STARLINK-310811 58632U 23203Q   26262.70873824  .00000005  00000+0  97222-5 0  99922 58632  43.0020  54.8474 0001364 268.3563  91.7132 15.27575746154422

JSON: /api/v1/satellites/58632 · /tle

For live sub-satellite position, see the globe view (requires WebGL).

§ Visibility from observer

Set your observer location to see the next 7 days of passes ≥ 10°. The values pass through the URL so the page stays shareable.

No JS? Fill the form by hand. The geolocation button needs JavaScript.